Location: Newark
(45.5000°N, 11.4167°E)
Time: 17:42:41
(UTC+00:00)

Explorer 11/Cluster Stage 4 - Pass Details

Date: 27 August 2019
Orbit: 467 x 1259 km, 28.8° (Epoch: 13 October)

Event Time Altitude Azimuth Distance (km) Brightness Sun altitude
Rises 08:52:15 0° 230° (SW) 3,912 10.1 43.1°
Reaches altitude 10° 08:55:40 10° 215° (SW) 3,060 9.7 43.6°
Maximum altitude 09:01:11 21° 170° (S) 2,431 10.0 44.4°
Drops below altitude 10° 09:06:58 10° 125° (SE) 3,231 10.8 45.1°
Sets 09:10:41 0° 111° (ESE) 4,190 11.0 45.6°
